Meteo Giornale » Osservazioni meteo Egitto » Cairo

ore: 17:30 - Osservazioni Meteo Cairo
Lat. 30° 8' N Lon. 31° 24' E Alt. 64 metri s.l.m.

sereno Africa/Cairo

28 °C

Sereno

Temp. 24 Ore

21 °C

29 °C

Nord

13 Km/h

Dew point 14 °C

Umidità 42 %

Visibilità  10 Km

Il sole sorge alle ore 05:57

Il sole tramonta alle ore 17:21

Data e Ora Cielo e Fenomeni T °C DP °C Um. % Pres. hPa Vis. km Vento km/h
Oggi h: 17:30 sereno Sereno 28 14 42 1012 10 N 13
Oggi h: 17:00 sereno Sereno 28 14 42 1012 10 N/NO 9.3
Oggi h: 16:30 poco_nuvoloso Poco Nuvoloso 28 14 42 1011 10 N/NO 13
Oggi h: 16:00 nuvoloso Nuvoloso 29 14 39 1011 10 N/NO 9.3
Oggi h: 15:30 nuvoloso Nuvoloso 29 15 42 1011 10 N/NO 13
Oggi h: 15:00 nuvoloso Nuvoloso 29 15 42 1011 10 N/NO 13
Oggi h: 13:30 nuvoloso Nuvoloso 28 14 42 1012 10 N 9.3
Oggi h: 13:00 nuvoloso Nuvoloso 28 15 45 1012 10 NE 7.4
Oggi h: 12:30 nuvoloso Nuvoloso 27 15 47 1012 10 N/NE 7.4
Oggi h: 12:00 nuvoloso Nuvoloso 27 15 47 1013 10 N 5.5
Oggi h: 11:30 nuvoloso Nuvoloso 26 16 54 1014 6 N/NE 7.4
Oggi h: 11:00 nuvoloso Nuvoloso 26 16 54 1014 6 N/NE 7.4
Oggi h: 10:30 nuvoloso Nuvoloso 24 17 64 1014 6 N/NE 9.3
Oggi h: 10:00 foschia Foschia 24 17 64 1014 4 N/NE 9.3
Oggi h: 09:30 foschia Foschia 24 17 64 1014 4 N/NE 9.3
Oggi h: 09:00 foschia Foschia 23 17 68 1014 2 N/NE 9.3
Oggi h: 08:30 foschia Foschia 22 17 73 1014 2 N 0
Oggi h: 08:00 foschia Foschia 22 17 73 1014 2 N 0
Oggi h: 07:30 foschia Foschia 21 16 73 1014 2 N 0
Oggi h: 07:00 foschia Foschia 21 16 73 1014 2 N 0
Oggi h: 06:30 foschia Foschia 21 16 73 1013 2 N 0
Oggi h: 06:00 foschia Foschia 21 16 73 1013 2 N 0
Oggi h: 05:30 foschia Foschia 21 16 73 1013 2 N 5.5
Oggi h: 05:00 foschia Foschia 21 16 73 1013 2 N 5.5
Oggi h: 04:30 foschia Foschia 22 17 73 1013 3 NE 7.4
Oggi h: 04:00 foschia Foschia 22 17 73 1013 3 NE 7.4
Oggi h: 03:30 sereno Sereno 22 17 73 1013 6 NE 7.4
Oggi h: 03:00 sereno Sereno 22 17 73 1013 6 NE 7.4
Oggi h: 02:30 sereno Sereno 22 17 73 1013 6 N 5.5
Oggi h: 02:00 sereno Sereno 22 17 73 1013 6 N/NE 7.4
Oggi h: 01:30 sereno Sereno 23 17 68 1014 10 N 5.5
Oggi h: 01:00 sereno Sereno 23 17 68 1014 10 N 5.5
Oggi h: 00:30 sereno Sereno 23 17 68 1014 10 N 5.5
Oggi h: 00:00 sereno Sereno 23 17 68 1014 10 N 9.3
Ieri h: 23:30 sereno Sereno 23 17 68 1015 10 N 9.3
Ieri h: 23:00 sereno Sereno 23 17 68 1015 10 N 9.3
Ieri h: 22:30 sereno Sereno 24 17 64 1015 10 N 9.3
Ieri h: 22:00 sereno Sereno 24 17 64 1015 10 N 13
Ieri h: 21:30 sereno Sereno 24 17 64 1015 10 N 13
Ieri h: 21:00 sereno Sereno 24 17 64 1015 10 N 18.5
Ieri h: 20:30 sereno Sereno 25 17 61 1014 10 N 18.5
Ieri h: 20:00 sereno Sereno 25 17 61 1014 10 N 16.7
Ieri h: 19:30 sereno Sereno 26 16 54 1014 10 N 14.8
Ieri h: 19:00 sereno Sereno 26 15 50 1013 10 N 14.8